Location: Unspecified
(0.0000°N, 0.0000°E)
Time: 20:12:05
(UTC+00:00)

CZ-3C DEB - Visible Passes

Search period start: 10 April 2026 00:00
Search period end: 20 April 2026 00:00
Orbit: 426 x 35849 km, 20.7° (Epoch: 10 April)

Date Brightness Start Highest point End Pass type
(mag) Time Alt. Az. Time Alt. Az. Time Alt. Az.
10 Apr ? 17:27:46 10° E 20:37:34 - ESE 19:10:39 18° E visible
10 Apr ? 23:02:45 10° WNW 00:05:12 17° WNW 01:44:44 10° W visible
11 Apr ? 19:23:18 10° WNW 21:23:14 61° WNW 05:17:31 10° SE visible
12 Apr ? 16:21:22 10° WNW 21:44:39 88° NNW 02:22:05 10° ESE visible
13 Apr ? 13:25:45 10° WNW 21:31:07 58° ESE 23:19:50 10° ESE visible
14 Apr ? 17:45:07 10° E 18:43:17 13° E 18:50:53 13° E visible
14 Apr ? 22:18:50 10° WNW 23:34:42 22° WNW 01:55:14 10° W visible
15 Apr ? 18:50:53 10° WNW 20:55:07 66° WNW 04:46:47 10° SE visible
16 Apr ? 15:50:16 10° WNW 21:44:15 89° SSE 01:50:51 10° ESE visible
17 Apr ? 12:55:01 10° WNW 21:00:09 53° ESE 22:46:51 10° ESE visible
18 Apr ? 21:39:11 10° WNW 23:04:02 27° WNW 02:02:04 10° W visible
